CAPE
2654 2725 2013 1552 1670 1875 2148 2512 2574 2352 2618 2658 2622 2613 2756 2841 2869 3001 3032 2991 2813 2510 2702 1795 1465 1952 2122 1975 1828 2106 2306 2278 2356 2397 2594 2572 2649 2465 2307 2423 2582 2379 2348 2410 2491 2382 2331 2191 2234 2256 2374 2368 2533 2261 2418 2686 2878 2819 2739 2776 2712 2769 2661 2667 2596 2661 2535 2547 2547 2764 2744 2710 2735 2819 2310 2334 2141 2252 2344 2330 2462 2358 2091 2428 2323
2342 2007 1590 1971 1575 1796 1999 2312 2277 2538 2559 2586 2637 2687 2681 2700 2660 2811 2646 2678 2852 2766 2329 2137 2189 2324 2314 2058 2200 2354 2251 2108 2500 2364 2244 2618 2570 2162 2255 2558 2414 2580 2460 2595 2205 2284 2412 2329 2343 2315 2352 2422 2440 2532 2800 2696 2795 2807 2786 2474 2468 2531 2779 2746 2817 2747 2676 2933 2795 2686 2685 2262 2614 2954 2897 2577 2468 2446 2165 2252 2546 2582 2458 2491 2083
2133 1921 1807 2194 1690 1715 2253 2514 2348 2336 2507 2690 2673 2644 2603 2547 2507 2544 2459 2580 2630 2545 2173 2065 2422 2269 2183 2017 2183 2459 2431 2286 2663 2398 2467 2671 2269 2160 2367 2338 2558 2315 2570 2174 2244 2397 2356 2234 2254 2261 2258 2552 2436 2480 2486 2481 2830 3220 3073 2889 3033 2930 2922 2858 2856 2771 2785 2958 2951 2947 2800 2797 2706 2728 2859 2527 2749 2866 2764 2582 2286 2546 2379 2412 2201
2263 2096 1973 2319 1893 1904 2344 2498 2496 2371 2474 2553 2604 2752 2756 2571 2330 2035 1989 1979 2520 2464 2306 2212 2251 2202 2266 2073 1967 2040 2212 2531 2570 2535 2290 2396 1796 1794 2035 2076 2305 2286 1980 1735 2314 2180 2455 2298 2171 2215 2182 2583 2878 2687 2734 2829 2984 2483 3292 2966 2819 3100 3188 3067 3060 2891 2751 2725 2338 2435 3011 2442 2755 2868 2901 2756 2822 2750 2680 2719 2629 2550 2178 2692 2448
2069 1968 1754 2274 2463 2095 2247 2390 2616 2482 2537 2494 2578 2501 2340 2200 1896 1549 1270 1728 2342 2425 2449 2322 2265 2277 2193 2100 2070 2140 2316 2385 2379 2529 2515 2112 1960 1907 1968 1881 2114 1994 1941 1471 1743 1924 2177 2201 2177 2135 2125 2346 2696 2649 2908 3050 2982 3036 2892 3040 2956 3020 3083 3001 3075 3056 2792 2701 2262 2767 2433 2305 2462 2503 2633 2818 2944 2858 2554 2538 2746 2691 2640 2600 2537
2208 2217 2328 2551 2256 2484 2268 2403 2640 2483 2391 2112 1825 2440 2066 1960 1516 1426 1367 1704 2092 1832 2155 2144 2001 1659 1678 1965 2113 2087 2073 2147 2190 2289 2398 2137 1903 1643 1755 1912 1933 1906 1709 1742 2004 1772 2288 2479 2278 2166 1876 2303 2574 2509 2755 2935 3001 3096 3193 3199 3131 2986 3033 3262 2920 3027 2799 2625 2368 2414 2205 2840 2069 2739 2738 2854 2647 2770 2850 2649 2711 2599 2691 2704 2566
2107 2234 2197 2596 2674 2366 2466 2473 2433 2216 1892 2043 1979 2064 2044 1727 1595 1399 1288 1512 1644 1759 1679 1984 1874 1990 1804 1856 2043 1851 1963 1915 2065 2013 2031 2163 1878 1605 1432 1630 1489 1693 1906 2149 2207 2214 2263 2488 2575 2593 2640 2645 2706 2617 2653 2652 2704 2945 3043 3057 3064 3007 3060 3154 2965 2385 2469 2373 2953 2314 2265 2312 2150 2389 2664 2697 2556 2574 2720 2656 2383 2501 2347 2053 2306
1688 1920 2018 2456 1654 2258 2396 2421 2337 2219 2126 2274 2274 2054 1788 1368 1432 1439 1311 1362 1368 1362 1405 1770 1881 1865 1888 1872 1863 1990 2104 2140 1722 1855 2093 1924 2125 2096 1717 1745 1650 1686 1994 2319 2280 2133 2157 2328 2316 2374 2292 2027 2244 2497 2346 2396 2589 2685 3036 3044 3146 3048 2973 3158 3187 3020 2418 2789 2444 2556 2878 2043 2634 2721 2685 2704 2578 2612 2538 2346 2628 2557 2211 2289 2147
1809 2280 2341 1734 2083 2616 2529 2558 2490 2384 2039 1842 1890 1832 1580 1437 1557 1470 1362 1453 1255 1142 1109 1685 1900 1985 1932 2108 2087 1838 1738 2022 1962 2256 2175 1796 1632 1591 1710 1873 1949 2103 2193 2232 2348 2498 2622 2374 2340 2232 2180 2124 2122 2116 2173 2343 2448 2715 2870 2982 3152 3100 2894 2976 2762 2590 2411 2722 3048 2847 2624 1434 1788 2557 2507 2416 2427 2520 2376 2349 2387 2218 2058 2051 1914
1504 1856 1686 1366 1793 2774 2669 2418 2092 1820 2027 2073 2090 1874 1590 1291 1542 1551 1438 1453 1244 1377 1161 1344 1745 1814 2071 2129 2128 2092 1827 1781 2161 1984 2126 1803 1801 1770 1753 1777 2050 2139 2086 2218 2252 2672 2824 2384 2307 2318 2305 2228 2145 2113 2248 2494 2740 2982 2963 3088 2958 2697 2597 3076 3423 2636 2148 2236 2204 2138 1993 2072 2036 2050 2098 2095 2418 2574 2410 2268 2062 2511 2328 2149 2110
1226 1639 1692 1561 2142 2609 2548 2396 2056 2004 2143 1987 1974 1828 1424 1535 1515 1545 1562 1458 1556 1406 1350 1587 1826 1922 2063 1871 1736 2098 2183 2292 2016 1980 2042 2143 2316 2465 2178 2132 2280 2178 2176 2273 2322 2302 2764 2587 2425 2236 2253 2228 2186 2183 2245 2434 2664 2979 3200 3203 2927 2526 1793 1530 2051 3038 2450 2084 2026 1901 2082 2143 1992 2113 2129 2058 2096 2165 2239 2170 2216 2290 2124 2079 2021
1313 1724 1678 2179 2943 2504 2423 2398 2202 2042 2098 2140 2049 1896 1561 1395 1432 1353 1580 1592 1547 1662 1780 1925 2086 2093 1918 1745 1845 2068 1756 2108 2285 2118 1951 2097 1893 2147 2273 2150 2391 2350 2467 2099 2409 2326 2599 2434 2718 2572 2436 2354 2232 2224 2435 2594 2897 3090 3042 2974 2858 2630 2148 2196 2837 2873 2571 2438 2289 2123 1723 1712 1806 2155 2205 2106 2048 2151 2212 2142 2156 2103 1995 1934 2013
1279 1102 1419 2005 2536 2525 2384 2328 2153 2028 2095 2129 2013 1819 1886 1734 1589 1317 1510 1679 1897 1806 1722 1832 1680 1796 1784 1631 1743 1644 1962 1980 1888 2081 1911 1914 2008 2063 2240 2159 2333 2166 2308 2374 2462 2268 2654 2590 2573 2636 2550 2354 2352 2427 2638 2740 2661 2716 2722 2860 2951 2858 2452 2305 2986 3099 3033 2750 2446 2087 1890 1998 2304 2260 2196 2174 2088 1981 1995 2031 1950 1997 1976 1923 1990
873 1188 1724 1573 2533 2738 2310 2301 2232 2048 1791 2122 2043 1806 1874 1741 1320 1320 1303 1359 1887 1858 1857 1708 1779 1787 1892 1841 1739 1768 1982 2129 1991 2084 1970 1543 1730 2027 1880 2003 2242 2329 2143 2420 2323 2682 2618 2628 2582 2684 2769 2736 2642 2570 2502 2522 2749 2730 2839 2794 2851 2702 2188 1892 2290 2648 2648 2579 2298 2147 2171 2088 2303 2381 2106 2102 2188 2098 2118 2196 2060 2056 2035 1981 2029
1180 1661 1579 1864 2384 2478 2415 2260 2147 1983 1899 2033 2207 1951 1641 1728 1580 1196 1341 1740 1822 1916 1849 1693 1602 1636 1568 1684 1600 1817 1940 1979 2198 1845 2137 1880 1888 2074 1979 2097 2162 2078 2150 2453 2463 2542 2605 2640 2699 2734 2653 2746 2735 2723 2563 2599 2597 2643 2501 2699 2746 2808 2566 1025 1036 1907 2133 2208 1971 1560 2252 2447 2349 2250 2205 2188 2282 2100 1977 1848 1734 1664 1704 1705 1798
1474 1557 1647 2372 2544 2712 2568 2284 1924 1847 1777 1758 1387 1291 1182 1262 1286 1460 1476 1785 1873 1884 1716 1808 1769 1609 1624 1674 1729 1788 1908 2049 1861 2222 2194 2326 2007 1899 1961 1997 2176 2151 2370 2522 2609 2654 2710 2662 2604 2564 2551 2935 3064 2820 2408 2394 2556 2566 2436 2510 2716 2698 3003 3661 1102 1342 1528 1500 1798 1997 2084 2593 2426 2350 2388 2083 1903 1859 1809 1706 1688 1718 1661 1586 1575
1604 1874 2158 2058 2365 1901 1632 2466 2130 1700 1123 1213 1122 1126 1125 1386 1529 1875 1837 1792 1907 2063 1924 1847 1742 1490 1758 1774 1941 1728 1823 1936 2037 1819 1913 2085 2192 1932 2000 1995 2014 2356 2465 2569 2633 2734 2763 2840 2855 2904 2990 3131 3103 2889 2709 2631 2462 2376 2418 2198 2093 2240 2698 3114 639 784 1022 1033 826 1121 1742 2164 2342 2270 2259 2192 1995 1920 1883 1756 1725 1744 1614 1549 1457
1119 1460 1789 2089 2028 2046 2135 1462 2047 1503 1255 1222 993 1179 1391 1825 1954 1936 1757 1866 1812 1810 1820 2021 1848 1753 1904 1884 1858 2222 2364 2046 2118 2003 2042 2224 1999 2201 2112 2194 2407 2510 2506 2632 2762 3066 3108 3109 3170 3094 3034 2966 3043 2973 2830 2894 2592 2474 2288 2398 1806 2473 2520 3254 520 562 550 854 1116 1443 1543 2311 2257 2259 2143 2099 2095 2091 1963 1884 1853 1784 1735 1664 1653
1615 1688 2056 2117 1971 2082 1582 1748 1910 2198 1512 1236 1310 1228 1840 1882 1950 1994 1970 1832 1756 1833 1932 1808 1626 1956 1955 1794 2243 2262 2042 2320 2368 2231 1976 2069 2211 2282 2250 2252 2294 2205 2279 2718 2802 2827 2877 2960 3030 2978 3024 2975 2933 2996 2914 2862 2854 2693 2646 2001 2669 1952 3204 3140 453 716 768 680 1253 1254 1654 2192 2245 2257 2272 2236 1920 1763 1833 1894 1890 1870 1877 1748 1676
1490 1738 1821 1892 2167 2244 1966 1802 1908 1100 1386 1228 1736 1791 1724 1792 1898 1904 1964 1736 1854 1762 1794 1666 1898 1865 1838 2213 2161 2248 2386 2316 2323 2345 1903 2006 2254 2291 2083 1971 2241 2059 2287 2600 2724 2935 2865 2870 2896 3000 2966 3001 3119 3147 3140 2883 2947 2771 2573 2972 1892 2832 2325 524 728 620 870 1176 1435 1628 2403 2089 2131 2225 2143 2069 2031 2067 2121 1910 1849 1889 1896 1795 1820
1462 1233 1769 1833 1801 2276 1883 2080 1488 2065 2156 1532 1766 1770 1772 1943 2043 2024 1791 2010 2022 1981 1974 2086 2134 1924 2324 2138 1918 2317 2310 2437 2071 2308 2202 2319 2244 2398 2196 2141 2134 2451 2494 2737 2801 2864 2999 3072 3039 3046 3192 3209 3124 3354 3243 3049 2995 2807 2940 2280 2884 3039 712 1208 1005 878 1142 1435 1639 2036 2724 2611 2391 2044 2245 2173 2187 2056 2064 1647 1777 1866 1764 1678 1948
1973 1909 1127 1431 2055 1974 1984 1984 1448 1370 1332 1764 1495 1612 1650 1899 2467 2574 2528 2458 2314 2152 2155 2274 2341 2270 1801 2400 2982 1939 1928 2477 2262 2445 2793 2621 2740 2690 2589 2423 2376 2273 2379 2575 2956 3046 3223 3223 3333 3278 3263 3362 3258 3095 3245 3335 3137 3202 3137 3148 3139 989 869 1029 871 1029 974 1271 1728 2496 2625 2731 2741 2533 2397 2442 2358 2117 2177 2028 2143 2134 2245 2232 2131
1988 2074 2051 2136 2219 2268 2190 1874 2191 1492 1550 1837 1574 1645 1571 1562 1592 2283 2160 2210 1760 2114 2208 2349 2405 2711 2602 2620 2736 2544 2298 2358 2319 2376 2614 2347 2601 2755 2862 2802 2534 2301 2252 2533 2961 3159 3101 3178 3293 3455 3519 3693 3971 2982 2723 3110 3131 3169 3643 3382 2077 1008 1115 1212 960 660 949 1594 1462 2749 2860 2739 2678 2668 2528 2412 2497 2508 2503 2309 2074 2255 2280 2431 2333
1784 1999 1963 1880 2273 2300 2513 2496 2529 1612 1732 1677 1686 1193 1354 2121 2004 1634 2160 2090 2252 2221 2161 2564 2777 2828 2849 2590 1763 2784 2369 2532 2543 2456 2491 2508 2539 2509 2595 2469 2308 2290 2392 2878 3009 3173 3261 3102 3442 3694 3552 3357 2866 2004 2173 2482 2737 3050 3486 968 1004 1080 1163 1226 540 678 1094 1830 1724 2928 2838 2808 2816 2668 2631 2634 2428 2387 2522 2446 2216 2380 2163 2545 2543
1672 1724 1592 1811 2364 2605 2494 2682 2521 2402 2080 2279 2221 2109 1558 2292 2293 1866 2313 2287 2041 2149 2120 2605 2895 2955 2704 2036 1256 1401 1986 1988 2591 2426 1758 1979 2216 2410 2518 2397 2657 2914 2570 3374 2855 2785 3118 3276 3230 3588 2924 2493 2520 1247 922 1006 1175 762 1320 760 846 848 633 610 770 964 1362 2074 2126 2826 2820 2495 2945 2599 2545 2689 2599 2370 2516 2650 2510 2508 2429 2507 2536
1228 1564 1626 1511 1860 2170 2245 2347 2285 2324 2251 2378 2358 2183 1676 2141 2062 1334 1715 2224 2371 1861 1735 1596 2724 3014 2468 1860 1540 1990 2231 2669 2944 2574 2006 1672 2000 2471 2265 2398 2822 3039 2750 2832 2597 1690 2578 2287 2158 1989 2374 610 768 678 502 1089 614 526 794 813 597 718 544 804 932 1275 1056 1970 2401 2874 2551 2717 2917 2820 2442 2653 2539 2478 2455 2484 2454 2524 2474 2452 2448
1132 1238 1136 1288 1645 2054 2296 2164 2200 2531 1692 1876 2221 2025 1972 1900 1755 1851 1899 2026 1901 2048 2016 2270 2262 2600 2459 2591 2348 2212 2312 2548 2640 2362 2222 2111 2056 2240 2192 2462 2712 2717 2583 2742 2031 2408 2898 2568 2580 2309 2030 794 663 1044 768 813 498 368 765 676 893 666 702 727 932 1177 1059 2152 2185 2723 2708 2513 2935 2581 2683 2580 2388 2384 2444 2367 2495 2479 2394 2464 2594
916 1094 1021 1104 1526 1648 1985 2067 2331 2358 2411 2333 2076 1671 1967 1928 1837 1855 1949 2046 2023 2126 2118 2207 2417 1934 1796 1707 1654 1577 1579 1678 1695 1964 2081 2210 2120 2211 2151 2314 2270 2595 1820 1978 2103 2038 2177 2330 2413 2655 2242 1747 910 901 499 569 793 766 712 926 674 855 773 597 102 1106 990 2268 2382 2737 2292 3047 2644 2838 2791 2794 2542 2544 2648 2557 2535 2620 2585 2624 2555
778 751 923 999 1338 1670 1992 2043 2047 1940 1814 1493 1378 1296 1266 1688 1888 2033 2071 2003 1996 2054 2074 2620 2567 2253 1808 1158 936 782 1114 1511 1825 1907 1917 1944 1797 1948 2000 1988 1892 1999 2053 1684 1708 2055 2318 2332 2537 2521 2656 2219 1187 951 1049 555 560 435 574 893 600 1088 1012 781 879 944 775 1646 2934 2411 2891 2535 2583 2765 2847 2950 2905 2841 2785 2639 2631 2750 2821 2889 2764
636 934 967 1020 1162 1340 1435 1386 1423 1547 1430 1299 1444 1582 1735 1852 1905 2172 2005 1833 1888 1720 1799 1780 1876 1882 1301 1201 985 897 1160 1515 1802 1750 1778 1994 2080 1933 2180 2135 2028 1632 2085 2248 2314 2246 2414 2581 2511 2389 2383 1718 920 1229 1558 978 692 1085 934 1158 648 483 850 1285 1424 1184 816 1036 1298 1698 2931 2728 2922 2777 3129 3180 3126 3266 3184 3223 3319 3213 3175 3141 3253
718 822 913 1066 1154 1042 1226 1470 1482 1626 1458 1443 1601 1712 1742 1680 1716 1870 1842 1829 1792 1562 1241 1232 1444 2066 2192 1675 1481 1513 1198 1260 1628 1763 2048 2004 2103 2066 2233 2183 2118 2104 1811 2356 2702 2920 2920 2889 2856 2723 2630 2624 2138 1720 1204 838 685 837 751 598 684 868 837 1104 1329 1367 1338 1571 2269 2454 2093 3359 2717 3008 3104 3259 3518 3454 3310 3414 3480 3587 3616 3528 3564
721 869 918 1100 1055 1000 1209 1315 1507 1590 1501 1422 1626 1675 1914 1808 1722 1590 1368 1765 1725 1290 1038 890 1145 1838 2212 2686 2684 2047 1803 1842 1926 1840 1968 2006 2214 2481 2495 2352 2390 2519 2720 2793 3127 3394 3248 3104 2965 3160 3169 2530 1804 1532 1741 1325 755 337 767 758 1412 930 1846 1599 1109 1124 1261 1384 2416 2182 2927 2757 3069 3070 2910 3156 3311 3377 3645 3854 3856 3802 3892 4063 4183
741 707 842 994 963 1029 1159 1296 1549 1617 1345 1285 1384 1444 1498 1561 1543 1385 1557 1389 1311 1194 818 969 1271 1800 2416 2722 2534 2352 2446 2487 2300 2150 2259 2434 2577 2637 2759 2769 2704 2848 2972 3281 3542 3027 2680 2543 1922 2137 2705 2152 1864 1385 1505 713 1037 1531 950 1195 719 602 1145 841 1410 1744 1134 1662 2178 2336 2342 2601 3445 3306 3550 3332 3294 3572 3774 3854 3950 4067 4074 4139 4291
704 694 780 939 1039 1024 1012 1056 1244 1447 1478 1408 1341 1489 1579 1539 1309 1100 1260 1347 1292 1218 1012 1101 1500 1685 2090 2451 2808 2918 2754 2575 2883 2882 2171 2521 2714 2596 2610 2936 3086 3087 3380 3445 2843 2596 2336 2001 2517 2676 2102 2138 1997 1823 1531 1150 1118 1458 1053 772 1125 1685 1591 1589 1476 553 1914 1403 983 1640 1743 1557 2500 3772 3534 3869 3988 3665 3707 3661 3793 3903 3962 4031 4144
637 711 868 912 868 799 981 988 1312 1514 1714 1510 1661 1709 1667 1461 1238 1314 1516 1113 1029 1041 1009 1131 1460 1716 1954 2591 2780 2982 3002 3100 2955 3233 2515 2411 2480 2539 2871 3149 3201 3186 3014 3107 3525 2888 2813 2829 3645 3346 2020 2104 1554 1522 1692 1467 567 952 1299 1897 1682 2068 1750 887 1033 584 874 1080 1766 980 1575 1139 1030 2075 2358 4342 4114 3742 3937 4173 4014 4057 4100 4308 4204
697 772 931 856 848 1035 1082 1203 1375 1495 1927 2120 2200 2286 2009 1915 1882 1555 1424 1368 1213 1083 1251 1359 1745 2034 2328 2648 2857 2883 2976 2939 3056 3200 2425 2232 2196 2615 2912 3173 3703 3143 2726 3490 3558 2953 3067 2283 3289 3338 2705 2328 1704 1482 782 1216 916 756 886 1004 1093 1703 1745 1059 1558 1399 962 1744 877 864 1412 1085 1456 1245 1796 1017 3380 3584 3770 4206 4404 4343 4601 4524 4387
655 648 836 986 929 965 1256 1045 1321 1632 1945 2121 2441 2675 2555 2246 1658 1663 1558 1718 1421 1340 1447 1492 1687 1968 2132 2398 2646 2651 2847 2897 2896 3523 2935 2428 2301 2179 2694 3331 3661 3506 3597 3532 2900 3223 3200 2873 2970 2738 2710 2648 1596 912 588 451 778 1005 1036 1251 1020 1658 1832 1616 1497 764 690 1320 1691 1215 1037 1315 1715 2015 3126 1446 1129 2988 3808 3575 4523 4564 4581 4534 4657
678 760 724 806 824 854 1158 1012 1468 1672 2171 2420 2669 2614 2798 2766 2375 1807 1883 1575 1207 1334 1561 1443 1717 2154 2436 2868 2873 2779 2943 3024 3165 3933 4232 2438 2497 2467 3139 3338 3313 3727 3738 2799 3146 2544 2418 2528 3130 2367 2279 2064 1912 1638 1477 1516 1028 469 1016 810 1323 1322 856 1225 890 1065 1259 1002 1147 868 1021 971 1118 995 1218 888 715 1910 2061 3725 3898 4194 4053 4455 4353
830 776 857 920 728 881 1397 1459 1203 1670 2008 2507 2607 2556 2473 2620 2170 2162 2392 1931 1534 1316 1459 1755 1509 1663 2001 2712 3068 2757 2992 3107 3440 3849 3894 2066 2486 2823 2995 3823 3113 3250 3952 2913 2462 2605 3261 2910 1965 3704 2208 1217 1875 947 879 1498 918 1371 744 945 515 1265 1163 828 1420 1523 1421 758 1004 1010 931 1105 1006 951 1426 2000 1240 1759 1857 2260 3876 3844 3868 3718 4699
1004 828 1012 1159 811 1197 1753 1398 1631 1626 2093 2512 2559 2331 2224 2326 2048 2135 2108 2112 1951 1790 1703 1319 1845 2203 2134 2549 3210 3020 3008 3216 3317 3540 3938 3578 2770 2970 3076 3201 3259 3733 4062 3178 3031 3179 3032 3671 2396 2307 2193 2138 1284 1081 942 1677 812 967 996 859 1146 1505 1546 1287 1571 1271 1273 821 836 1076 900 762 819 951 1498 1035 911 777 1595 2027 2793 1390 3506 3571 4010
1226 1010 1125 1285 880 1393 1855 1715 2148 1973 2110 2172 2425 2149 2131 2137 2028 1798 2147 2144 2082 2077 1633 1327 1699 1877 2118 2827 3436 2947 3229 3249 3462 3717 3546 3348 3578 3356 3209 3774 3211 3602 3938 3556 3454 3261 2738 3258 2762 3060 1926 2117 1885 1782 892 1326 1111 989 1870 980 1143 1248 1607 2149 1990 988 1106 837 527 536 816 1174 1133 1053 1364 1288 1606 1583 1210 1376 1481 1176 1838 4615 4096
1410 1257 1151 1426 1171 1405 1502 1602 1811 2003 1980 2280 2287 2097 2162 1995 1656 1661 1794 2305 2281 2147 2161 1558 1903 2759 3363 2577 3308 2948 3398 3652 3684 4468 4652 4004 3599 3308 3557 3619 3748 3555 3829 3408 3688 2856 3032 3442 2729 4210 2400 1723 1551 1349 934 2295 1712 886 1240 1442 1651 1304 1431 1300 1468 858 802 415 633 662 1043 1397 1217 700 1332 1558 1000 1007 856 918 938 1207 2990 2828 3596
1416 936 1178 1378 1353 1586 1432 1584 1673 2005 2235 2331 2414 2506 2002 1948 1584 1532 939 1211 1532 1833 1618 1459 1920 2142 2400 3070 3538 3499 3716 4065 4011 4262 3416 4360 3654 3922 3410 3365 3680 3211 3218 4062 3656 3183 3246 3250 3749 2863 3212 2795 1488 1362 1955 2168 1659 1147 1687 1508 942 1158 1104 1420 826 819 772 822 433 650 950 823 487 875 1070 1504 1212 1398 1090 1472 2462 2384 3052 3513 3440
1094 994 1360 1446 1470 2130 1702 1787 1718 2038 2396 2754 2349 2434 2417 2836 2967 2240 1921 1172 1989 2179 2431 2069 2162 2101 2513 3080 3473 3295 3737 3401 3307 3266 3420 4009 3772 3795 3466 3436 2959 3651 3723 3647 3366 3683 2939 3321 3138 2444 3050 2667 2098 1612 1439 1682 2819 3075 1424 1996 2016 1044 1448 1685 1585 1210 708 734 463 474 767 713 766 1029 999 872 826 1438 1401 2038 2608 3280 3163 3452 3415
785 1021 1199 1499 1010 2026 1956 1968 1935 1860 2383 2793 2861 2748 3186 3298 3300 3510 3105 2732 2356 1998 1857 2132 2346 2404 2235 2595 2816 3253 3575 3019 3225 3591 3296 4018 4149 4108 3951 3673 3725 3470 3403 2640 3504 3694 2983 3233 2788 3408 2121 2338 2269 1502 1499 1482 1459 2020 2792 2892 1756 2000 1850 1585 1244 1909 1216 1064 547 559 782 690 545 726 591 804 696 633 694 1467 3212 2969 2929 3866 3142
667 862 996 1106 1100 1842 2036 2323 1910 1848 2110 2490 2893 2859 2888 2952 3015 2803 2842 2473 2583 2120 2028 2015 1989 1820 1922 2219 2582 2845 3044 3380 3161 3551 3338 3518 3938 4152 3690 3785 3829 3326 3080 3385 3106 1946 1725 3657 2813 2997 2547 2385 3061 2674 1066 1454 1304 1625 1513 2461 3145 2647 1905 1675 1690 1526 1398 923 782 578 362 1064 768 954 1201 650 428 400 756 1118 2675 2147 2576 2868 3597
623 604 632 918 1292 1824 2368 2407 1962 1874 2263 2407 2650 2946 2982 3430 2930 2146 2078 2326 2499 2131 2073 1542 1439 1257 1840 2214 2290 2837 3114 3161 3359 3634 3765 4132 4554 3933 3834 3596 3564 3752 3175 2824 2499 2539 2229 2761 3061 3440 3270 2538 2960 2930 2885 1431 1893 2203 1468 1282 1022 2047 2048 2216 2152 2811 1574 1286 1687 1503 871 889 727 422 786 842 711 602 886 949 548 1151 3433 2999 3225
542 641 738 904 1612 2124 2324 2467 2109 1888 2256 2282 2577 2804 3091 3582 3215 2404 2346 2395 1567 2302 2821 2406 2142 1979 2247 2336 2371 2802 2900 3284 3075 4129 3942 3723 4051 3885 3832 3842 3759 3552 3048 3370 3074 2842 2547 3090 2676 3001 3581 3001 2794 2856 2749 2454 3348 1371 1756 2291 1676 1244 1195 1510 1979 2662 2412 2370 1460 1930 960 530 419 330 466 720 875 670 725 901 1059 825 1569 2259 2232
502 652 678 1057 1285 2174 2335 2432 2413 2194 2160 2333 2521 2443 3250 3712 3502 2848 2324 1725 2131 2703 2320 2317 2620 2542 2487 2603 2574 2650 2662 3349 3536 3106 3964 3984 3241 4171 4269 3980 3735 3477 2838 3068 2630 2556 2759 3660 3207 3733 3410 3384 3413 2682 2576 3000 2564 2608 2114 2588 1939 1984 1769 1427 1276 1570 1728 2149 1804 1520 1508 814 1147 833 1053 499 564 631 538 492 2432 1314 1568 1833 1790
558 547 577 941 1208 2091 2411 2301 3007 2330 2335 2649 2462 2416 2673 3746 2984 2602 2854 2745 1875 2058 2189 3119 3386 3092 3597 3338 3789 3293 2526 2638 2981 3666 3378 3666 3396 3663 3152 3416 3102 3085 2771 3307 2699 2776 3019 2900 3602 3791 3721 3665 3266 3097 3377 2965 2605 2275 3070 2363 3290 2675 1956 1826 1855 1238 1532 1367 1609 1758 1631 2037 1940 1187 1110 1084 499 786 788 815 1843 1315 825 1841 1931
533 615 559 974 1144 1932 2631 2375 2768 2463 2575 2708 2320 2290 2723 2637 2843 3044 3711 3308 3023 3205 3563 3470 4252 3292 3580 3227 3377 3151 2452 2376 2443 2293 2966 2739 3290 3477 2733 2271 3020 2949 2451 3032 2919 2329 2120 2613 3143 2844 3617 4054 3398 4040 2931 2636 2693 2249 1848 2730 2100 1632 1864 2540 1500 1755 1389 1356 1874 1872 1371 1847 944 1281 1932 1034 1452 961 904 1079 1083 747 1565 1458 1830
Wind_Speed
7 4 3 3 8 9 11 13 11 3 4 4 5 5 4 4 3 4 3 2 3 2 2 7 6 5 6 5 3 1 2 4 8 8 8 8 10 10 10 8 6 7 9 11 12 13 12 12 11 11 10 10 9 10 10 9 10 8 8 7 8 8 8 9 9 9 9 9 10 9 10 11 12 9 9 9 7 7 5 1 2 3 3 6 5
3 4 4 4 9 11 13 14 5 3 4 5 5 6 5 5 5 4 3 2 5 8 11 9 5 4 7 6 3 2 2 3 6 8 5 6 9 9 8 8 7 6 9 12 12 11 11 10 10 10 9 9 10 9 9 9 9 8 8 8 8 9 9 9 9 9 10 10 10 11 12 12 11 8 8 8 8 7 6 6 6 3 3 6 6
2 3 4 3 7 11 12 9 4 5 6 6 6 6 8 10 9 8 8 9 9 12 11 6 3 4 6 6 5 4 4 5 6 7 8 9 10 8 8 6 5 8 10 12 12 9 10 10 9 8 8 9 8 8 8 8 7 8 8 8 8 8 8 8 7 8 8 9 10 10 12 13 12 11 10 9 9 9 8 8 8 6 3 6 5
4 5 4 3 5 8 8 10 8 7 6 7 7 7 7 7 7 5 6 8 10 9 6 4 4 4 5 5 7 7 8 5 6 6 6 11 10 8 8 5 2 4 10 11 9 7 8 9 8 6 6 7 7 7 6 6 6 7 8 8 8 7 6 5 5 4 4 5 6 6 6 7 9 11 9 8 9 9 9 10 9 8 8 6 5
5 4 4 5 5 8 10 9 9 6 8 7 9 8 8 7 6 6 7 9 7 4 3 3 4 5 6 6 6 9 11 6 7 6 7 12 10 9 8 7 7 10 10 9 4 2 6 8 7 6 5 5 6 6 5 6 6 7 8 9 8 8 6 5 4 4 3 6 11 9 7 7 7 10 9 8 8 9 9 9 9 7 6 6 5
3 4 5 5 4 4 9 9 9 7 9 12 7 5 8 5 3 3 5 4 3 2 2 3 6 7 7 7 7 8 11 11 10 9 10 14 12 9 9 8 9 10 9 7 7 3 4 5 5 5 5 5 6 6 6 6 6 7 8 9 8 7 5 4 3 4 6 7 5 5 8 6 6 6 9 8 8 9 8 8 8 6 5 4 4
4 4 4 5 5 4 8 8 6 7 7 3 6 9 7 4 1 2 1 1 2 4 6 6 10 10 10 11 9 9 8 9 10 10 11 14 18 13 10 8 8 6 7 7 7 7 2 2 4 5 5 5 5 6 6 7 7 8 9 8 7 5 3 2 2 1 0 5 4 5 3 5 5 4 7 7 8 8 8 7 6 4 5 4 3
3 4 4 5 5 4 11 5 7 7 8 8 9 8 5 1 1 2 2 4 5 6 7 8 9 11 13 11 12 10 8 8 8 10 10 10 14 16 17 12 11 10 9 8 8 7 4 3 4 6 6 5 6 6 7 8 8 9 8 7 5 3 2 0 5 6 8 4 4 1 5 4 4 3 6 7 7 6 5 6 6 5 4 3 1
4 4 6 3 2 3 4 4 4 5 5 8 7 4 4 3 4 1 3 3 3 5 8 8 9 11 11 12 10 9 9 9 8 8 8 8 11 13 16 14 12 10 9 8 7 5 5 6 5 7 6 6 6 6 7 8 8 8 8 6 4 2 1 1 2 3 1 4 4 3 2 1 4 4 4 5 6 7 7 4 4 4 5 5 5
5 6 5 4 2 4 4 4 5 6 6 6 5 3 3 5 2 3 3 4 5 6 7 8 8 9 9 9 9 8 7 7 7 8 5 6 8 10 14 11 9 9 8 6 5 6 6 6 7 7 8 7 7 7 7 8 7 6 5 5 3 2 1 5 8 6 1 2 3 2 6 4 3 5 5 5 5 7 8 7 7 7 5 4 4
5 6 4 2 5 5 4 4 4 3 5 4 3 5 2 4 3 2 2 4 6 7 9 10 10 7 7 8 7 6 5 4 4 6 5 5 6 8 10 9 7 8 8 5 4 6 6 7 7 7 7 7 7 6 6 7 6 5 4 3 2 1 1 2 1 0 1 3 3 3 4 7 5 7 7 7 8 8 8 8 7 5 4 3 2
5 6 3 4 4 4 4 4 4 5 4 3 3 3 1 3 2 3 3 4 6 6 9 8 8 6 6 6 6 6 4 4 3 4 4 4 3 5 6 6 6 5 4 5 4 6 7 7 7 7 6 7 7 7 6 5 5 4 2 1 2 1 1 3 3 2 1 2 4 4 4 5 6 7 8 8 8 8 8 7 5 3 3 2 2
8 5 3 2 3 3 3 4 5 5 4 4 3 3 4 4 4 3 3 3 6 8 9 8 7 6 6 5 5 4 4 3 4 3 5 5 3 3 3 3 3 3 3 3 4 4 6 6 6 6 6 6 7 6 4 3 3 2 1 1 3 2 5 8 3 3 5 5 7 6 7 8 9 8 9 8 7 6 5 4 3 3 2 1 1
6 4 4 4 5 3 4 4 5 5 5 4 3 3 3 6 6 4 5 6 6 8 8 8 7 5 5 5 4 3 2 3 3 5 5 8 4 4 2 1 1 1 2 2 2 3 4 5 5 5 5 6 6 6 4 3 1 1 1 3 6 10 10 3 5 6 7 8 9 9 10 10 10 9 8 6 5 4 3 3 2 2 2 2 2
7 5 5 4 5 4 4 4 4 4 4 4 2 2 4 4 2 2 4 5 6 7 7 6 6 5 5 5 4 3 4 5 4 4 3 4 6 6 5 3 1 1 1 2 3 4 4 5 5 5 5 6 6 5 4 2 2 2 4 8 10 14 19 10 10 9 11 12 11 9 9 9 7 7 6 5 4 4 3 3 3 3 4 5 5
6 4 4 6 4 3 2 3 4 5 5 5 4 5 4 2 0 3 4 5 6 6 6 6 6 5 4 4 4 4 3 3 3 1 1 1 3 5 5 4 2 1 0 1 2 3 4 4 5 6 7 8 8 6 3 2 3 5 7 10 15 18 22 21 11 12 12 11 11 10 8 7 5 4 4 3 3 3 2 2 3 4 5 6 7
6 8 5 4 4 3 1 1 2 6 11 8 6 7 1 1 3 5 5 7 7 6 5 5 4 3 3 3 2 2 3 2 2 3 1 0 1 2 3 2 1 1 1 2 3 4 5 6 7 8 7 7 6 5 3 3 5 7 9 14 17 19 25 26 11 12 13 10 10 10 7 6 4 3 4 4 4 4 4 5 6 7 8 9 10
5 4 5 4 4 3 2 1 2 5 3 4 4 5 4 4 4 3 4 4 4 5 5 5 4 3 2 2 1 2 2 1 0 0 0 1 1 1 1 1 0 1 3 4 4 5 7 8 10 10 9 7 6 5 4 5 7 9 13 17 19 21 25 27 10 12 12 9 8 8 7 5 4 4 5 5 5 6 7 8 9 10 10 11 12
7 7 6 6 4 3 2 3 2 3 3 6 7 6 4 1 2 2 2 2 3 3 5 5 6 4 4 3 2 1 1 1 1 1 1 2 2 1 0 0 1 2 3 5 6 7 8 10 11 10 9 7 6 7 7 8 9 12 15 17 20 23 26 25 9 10 10 10 9 8 7 5 6 6 7 7 8 8 10 11 12 13 13 13 13
4 6 8 8 6 4 3 2 2 1 5 7 9 5 2 1 1 2 3 3 3 3 3 4 5 4 4 3 3 1 1 1 2 3 3 3 2 2 2 1 1 2 5 6 8 8 9 9 9 9 9 9 9 10 10 10 12 14 16 18 20 22 21 11 12 9 11 11 9 9 7 7 8 9 9 10 10 11 12 13 14 14 14 14 14
5 3 8 9 10 6 2 1 4 3 1 6 8 5 3 5 3 3 5 6 4 2 2 4 4 4 3 2 2 3 4 5 5 5 5 5 3 2 2 2 4 6 9 10 10 10 10 11 10 11 11 12 13 13 13 13 14 15 18 19 22 20 13 13 7 9 10 10 9 9 9 9 11 12 11 12 13 14 15 16 15 15 15 14 15
8 6 3 8 9 5 5 3 4 2 3 8 10 7 5 5 5 5 5 5 5 4 4 4 4 4 4 7 7 7 8 7 7 7 8 7 5 3 3 6 7 10 11 13 14 12 13 13 14 14 15 17 16 15 14 14 16 18 18 22 20 13 13 10 10 10 10 10 10 10 10 10 12 13 14 14 17 17 17 17 17 17 17 18 17
7 8 8 7 7 6 6 4 2 2 8 10 8 9 8 7 5 7 7 6 6 6 8 7 7 7 8 8 7 7 8 8 10 10 9 6 5 6 7 8 10 12 15 16 18 15 16 16 16 19 20 19 20 17 16 14 15 19 22 19 16 11 12 13 10 11 12 10 10 8 11 12 14 16 18 18 18 18 19 18 19 19 19 19 19
7 8 7 8 7 7 5 5 4 8 7 7 11 10 10 8 7 8 9 7 9 7 9 10 8 7 8 7 6 7 7 8 6 7 9 10 9 8 8 10 12 16 19 19 20 18 20 20 21 22 21 20 19 17 17 16 14 16 18 14 11 13 12 14 12 11 11 9 9 11 13 15 17 19 19 21 19 19 18 20 20 20 21 20 20
8 7 8 7 7 6 5 5 5 6 5 8 7 8 8 9 9 6 5 6 7 8 11 10 9 7 6 7 6 6 7 9 13 13 13 12 12 13 15 16 16 17 21 19 19 16 22 19 19 21 20 21 21 16 14 14 14 11 13 12 12 14 11 12 14 12 10 11 11 13 16 18 20 22 22 20 21 20 19 21 22 22 22 21 21
7 7 7 6 6 6 5 4 5 6 6 10 6 4 6 8 8 7 5 9 8 9 10 7 7 10 8 5 5 7 9 11 12 12 12 13 13 14 15 16 18 17 20 20 19 19 19 20 20 19 22 17 18 17 16 14 13 12 11 12 12 14 13 12 13 14 12 11 12 15 18 21 23 23 23 23 21 22 21 23 23 22 22 22 22
8 7 6 6 6 5 5 5 4 6 3 5 8 5 3 3 3 3 4 5 5 7 6 7 8 11 6 7 8 9 10 10 11 12 12 14 14 14 14 16 17 18 18 20 17 19 19 18 18 17 19 16 12 15 17 15 14 11 11 12 14 13 13 13 13 14 14 13 13 16 20 23 24 24 23 24 23 23 24 23 23 23 23 23 23
8 6 6 6 5 4 5 5 4 4 5 4 4 4 4 3 1 3 2 4 5 5 6 5 6 7 6 8 9 11 11 9 10 12 13 13 15 15 15 16 16 18 17 15 17 16 17 18 18 18 18 19 16 14 12 14 15 12 11 13 12 14 15 12 14 17 15 14 16 19 21 24 24 24 24 24 25 24 24 25 25 25 24 26 25
6 6 7 6 5 5 3 3 3 3 4 4 4 4 3 4 2 2 1 3 3 3 4 5 6 8 8 8 8 8 8 8 9 9 10 10 11 12 12 13 13 14 15 15 17 16 17 17 17 16 16 17 15 14 14 13 14 12 12 12 11 13 14 13 14 17 16 18 18 19 22 22 24 25 24 26 25 26 25 25 26 26 27 27 28
6 6 6 6 5 4 3 3 2 3 3 3 4 4 4 4 3 3 2 2 2 2 5 5 6 7 7 7 5 6 7 7 7 7 9 10 10 10 11 12 12 13 14 14 15 15 14 17 16 15 14 14 15 17 17 14 12 14 14 14 12 10 13 13 16 16 17 19 19 19 21 22 24 25 25 25 26 26 26 26 26 27 28 29 29
4 4 5 6 6 4 5 5 5 4 3 3 4 3 4 5 4 4 3 2 1 3 3 4 5 5 6 7 6 6 6 5 6 7 9 9 10 11 10 10 11 11 12 12 13 15 15 14 15 16 14 14 18 17 17 13 12 12 13 11 12 12 13 14 15 16 17 20 20 19 19 22 24 25 25 26 26 26 27 27 27 28 29 29 29
3 3 5 5 4 4 5 5 5 6 4 4 4 4 5 5 5 6 5 4 3 3 2 2 3 4 5 7 8 7 6 5 6 8 8 9 10 10 10 10 10 12 11 11 11 13 13 12 12 14 15 15 15 16 18 14 12 10 12 13 13 11 12 17 14 18 18 20 23 20 18 19 22 24 25 26 26 27 27 28 28 28 29 29 29
4 3 3 2 3 5 6 6 6 6 5 4 4 4 3 4 5 6 6 6 5 4 3 3 3 4 6 7 7 7 7 7 8 8 9 9 9 10 9 9 10 11 11 12 13 12 12 11 13 15 14 14 15 15 15 12 16 14 10 11 10 11 12 13 15 16 14 16 19 20 20 18 18 22 25 25 26 27 27 27 27 28 27 28 28
5 4 3 2 5 6 5 6 6 6 6 7 5 4 4 4 4 5 6 6 6 5 4 4 4 5 6 7 7 8 8 8 9 10 9 9 9 9 9 9 11 11 12 13 13 11 11 12 13 15 18 15 15 15 14 12 12 12 11 11 12 13 14 13 13 15 20 15 18 19 17 17 17 19 20 23 25 26 27 27 26 26 26 26 26
5 4 3 4 3 4 5 7 6 7 7 7 6 5 4 3 3 4 6 6 5 5 4 5 6 6 7 7 8 8 8 9 9 11 10 9 8 9 9 10 11 11 10 10 14 11 11 8 12 14 16 14 14 14 15 12 11 13 15 15 11 12 13 12 17 14 16 16 20 18 18 19 17 21 19 16 21 25 25 24 24 24 24 24 24
4 4 4 4 4 5 5 5 5 5 7 7 7 7 6 6 5 4 5 6 6 5 5 6 5 6 6 6 7 7 8 9 10 12 12 10 8 8 9 8 10 11 11 10 13 14 13 10 12 12 10 19 13 11 10 12 12 10 12 10 9 13 10 12 15 13 15 18 16 16 20 16 16 16 20 18 17 19 22 21 21 21 22 21 21
4 3 3 4 4 5 5 4 2 4 3 4 5 5 5 3 3 3 3 6 5 5 6 4 6 6 6 5 7 7 8 9 9 11 12 8 8 8 7 7 9 9 11 7 7 8 11 12 12 13 14 12 14 8 9 10 11 10 9 10 8 13 10 14 15 13 14 14 17 17 13 13 14 13 17 18 17 16 17 18 17 19 19 19 17
3 2 2 3 4 5 5 4 4 2 3 3 4 3 4 4 4 3 5 5 3 5 4 5 6 4 5 4 6 6 7 8 9 9 15 9 8 8 6 7 8 8 10 9 10 6 8 11 11 11 12 14 14 13 12 13 11 9 12 7 11 10 9 10 13 11 10 13 13 16 18 17 17 18 16 18 14 20 16 14 15 15 15 14 14
3 2 2 3 4 4 6 5 3 2 2 3 4 5 3 5 3 2 4 5 6 3 5 7 4 7 3 5 5 6 6 7 7 10 10 8 9 7 8 8 8 8 9 14 6 9 11 11 14 11 12 13 13 13 14 15 13 13 7 7 6 11 12 10 14 12 12 11 12 12 12 11 12 10 11 14 13 9 16 14 12 9 10 13 10
3 3 3 3 3 2 4 4 4 3 3 4 6 4 4 5 3 2 3 5 5 4 7 5 4 7 6 4 6 6 6 6 8 8 11 10 8 8 7 9 8 8 7 11 9 8 8 8 10 15 15 12 11 11 12 13 10 12 13 9 8 7 11 12 10 8 6 8 9 12 9 7 8 12 6 10 14 11 10 13 15 13 8 6 7
3 2 1 1 2 3 2 3 4 3 4 4 5 5 4 5 4 4 3 4 4 5 6 7 5 8 5 3 6 6 6 7 7 9 9 10 11 8 9 10 8 7 8 9 9 11 9 10 8 12 14 13 13 12 9 13 10 9 12 8 8 6 6 8 13 8 6 4 2 7 8 11 8 5 8 7 7 13 8 8 8 11 14 8 7
2 2 1 1 1 1 2 3 4 3 3 3 5 4 4 5 5 6 3 3 3 6 4 8 4 2 3 4 7 5 6 7 8 9 9 10 10 9 9 10 9 8 9 9 10 9 9 10 10 10 16 13 11 14 12 16 11 7 7 7 7 7 9 8 16 7 5 4 2 6 7 4 5 7 6 6 6 9 9 6 5 8 5 9 9
2 2 2 2 0 2 3 3 3 2 2 2 3 4 4 5 7 5 4 4 3 6 4 4 6 3 4 5 4 5 7 7 8 9 9 10 9 10 10 9 11 8 9 9 8 9 8 8 6 5 11 14 9 10 10 13 15 8 12 8 6 5 9 7 9 6 3 6 9 9 6 7 9 6 7 6 8 7 5 5 7 4 4 3 5
3 2 2 2 2 4 2 2 2 2 1 2 1 1 3 5 10 9 11 4 6 5 3 1 2 7 4 3 4 5 7 7 7 9 8 9 9 10 9 8 9 9 9 8 11 9 8 9 6 6 11 13 11 9 10 11 9 14 11 9 6 10 8 6 7 12 11 8 8 9 8 9 8 12 7 6 8 3 4 3 0 7 8 3 6
4 4 2 2 3 4 3 2 2 2 1 2 0 1 4 4 5 8 6 9 4 3 2 3 2 2 3 5 4 6 6 5 6 7 7 7 8 9 8 8 8 8 8 8 8 12 6 5 4 8 8 10 13 7 7 8 11 11 11 11 8 8 8 12 12 10 13 11 9 7 7 10 11 9 9 7 5 8 6 6 3 4 4 7 3
5 5 2 3 4 5 6 3 2 1 1 2 1 2 3 3 3 2 3 3 3 2 3 2 2 4 5 3 6 7 6 4 5 6 4 5 5 6 7 8 6 7 8 10 8 7 5 6 1 5 7 6 11 12 6 6 4 7 8 8 6 6 8 6 8 8 8 9 8 5 5 9 5 6 6 4 10 9 5 4 5 6 3 5 2
7 7 4 5 6 7 7 5 3 1 2 3 2 2 2 3 2 1 1 0 1 1 3 2 1 4 2 4 4 6 6 6 6 5 3 4 5 5 4 7 6 5 7 6 8 10 2 4 5 3 6 8 8 11 15 6 9 5 3 2 5 9 4 3 4 6 4 6 7 7 8 8 7 9 8 10 10 8 6 5 6 6 7 6 3
9 9 7 7 9 8 8 6 4 2 2 3 3 2 3 3 2 4 7 4 2 3 3 4 3 3 2 3 4 4 5 5 5 4 4 3 4 4 4 5 6 5 5 6 7 7 6 4 3 5 6 7 7 8 8 10 7 7 10 11 5 4 5 7 5 2 2 5 8 11 9 11 8 8 7 8 10 7 6 5 9 5 8 6 4
11 11 9 10 10 9 9 6 5 3 3 4 4 3 3 3 3 3 4 3 7 5 2 3 3 3 2 2 1 4 3 3 3 5 4 3 3 3 4 5 5 4 5 4 5 3 4 3 3 3 4 5 7 9 8 7 10 8 8 10 9 7 4 4 3 3 4 9 3 7 7 9 8 6 8 5 6 6 5 6 10 7 7 6 5
13 13 11 12 12 11 10 8 7 4 4 4 4 4 3 4 2 4 4 4 5 4 2 6 5 4 4 3 3 2 2 4 3 3 3 3 3 2 5 4 5 3 6 6 5 3 3 2 3 3 6 7 8 7 7 8 8 9 7 6 6 5 6 5 3 3 4 4 6 1 6 5 7 7 10 4 8 7 6 7 5 8 8 7 4
15 13 13 13 13 13 12 9 8 6 6 5 4 5 4 3 5 4 3 4 5 6 6 6 6 4 4 4 3 3 1 3 4 3 2 2 2 3 0 5 4 2 5 4 3 3 1 2 1 4 3 5 6 8 6 5 6 7 5 5 4 2 4 3 3 6 5 3 6 6 9 5 6 9 6 9 6 7 5 7 4 5 6 5 2
Wind_Direction
121 123 120 120 126 128 133 132 131 143 176 200 215 215 213 210 204 194 201 230 269 277 245 254 231 251 266 291 314 121 193 266 277 265 254 264 270 263 271 265 259 277 290 292 292 287 286 289 289 284 283 277 272 267 254 248 244 247 246 254 263 263 263 264 265 267 265 257 247 237 224 223 222 218 219 220 225 240 258 155 255 277 269 275 282
81 89 100 130 131 129 127 125 114 148 174 194 200 203 198 201 194 179 168 221 244 248 240 244 268 280 272 278 297 315 200 213 256 271 264 271 267 262 265 273 284 312 299 293 289 287 287 286 286 285 285 286 269 255 253 245 244 242 244 250 246 253 255 260 262 261 258 252 243 233 226 224 230 225 228 228 231 242 245 247 239 215 236 251 258
52 75 90 129 124 125 132 118 142 163 175 185 192 195 201 199 190 187 184 194 220 234 242 261 285 279 289 309 318 305 279 259 265 275 285 281 269 267 258 256 304 310 303 291 284 291 296 296 294 293 287 285 285 274 254 246 238 240 245 255 268 254 253 257 254 253 259 261 252 246 236 225 221 223 227 232 234 238 243 242 252 258 249 263 247
15 53 67 86 105 121 131 139 149 168 168 172 188 207 212 207 200 195 191 199 218 234 259 296 314 297 291 311 323 299 278 273 279 289 287 278 272 276 265 263 304 272 263 254 273 285 296 303 304 302 296 290 288 279 274 265 254 248 251 258 266 270 262 262 258 255 256 240 239 222 198 213 220 226 229 233 239 244 251 256 253 254 253 237 228
12 34 55 72 73 100 122 128 145 155 163 177 182 204 214 214 201 178 192 194 203 231 260 299 301 304 300 308 304 291 290 321 305 299 296 281 281 283 277 283 262 259 250 254 250 253 299 302 301 301 296 286 281 276 273 266 259 256 258 264 268 271 275 279 272 258 227 199 195 190 199 213 209 222 223 234 244 249 254 259 257 247 241 231 208
12 37 62 83 95 96 108 138 152 152 177 203 161 206 218 206 172 162 208 227 196 216 264 287 283 298 301 303 298 293 301 310 306 307 295 289 288 270 271 269 248 270 286 314 302 308 253 278 297 300 294 280 271 270 269 266 251 249 256 259 264 271 280 270 255 225 223 180 204 189 182 189 211 195 226 229 240 242 243 243 242 229 224 224 219
9 68 88 92 105 128 114 134 139 173 190 171 218 186 204 211 320 2 311 268 328 334 318 304 302 305 312 315 310 305 297 292 288 280 284 299 304 311 286 267 278 286 296 310 291 279 265 274 284 287 280 265 254 257 260 257 256 251 253 258 261 271 285 318 256 253 316 103 145 175 137 198 208 191 230 228 236 237 230 223 213 191 169 162 187
31 71 88 106 113 99 110 163 173 186 186 183 204 216 226 202 78 227 286 18 360 343 332 314 303 302 305 308 315 312 302 295 284 282 290 303 307 314 312 318 331 329 325 305 292 308 330 290 268 264 265 261 249 239 247 250 250 254 255 256 256 261 258 128 4 22 52 108 169 209 144 171 193 195 224 228 223 209 198 193 171 158 155 167 197
43 54 69 88 121 167 150 192 181 191 202 199 193 222 199 148 155 174 343 325 357 346 329 309 311 314 314 316 318 314 300 293 284 284 295 304 304 310 304 324 323 316 312 294 295 284 254 243 245 248 250 249 237 226 233 241 246 248 250 252 248 240 163 120 148 92 119 149 158 179 60 201 179 189 211 207 190 160 137 155 156 172 187 185 196
41 60 79 81 132 196 195 208 206 196 199 200 197 214 189 131 118 50 10 352 326 308 312 330 340 331 323 322 323 316 300 293 291 270 259 270 267 267 288 293 306 308 298 270 267 252 234 246 245 244 242 235 226 215 219 232 238 237 243 245 246 252 310 35 48 29 313 184 225 174 159 206 197 177 200 199 180 164 177 186 150 177 178 209 222
55 73 82 161 207 205 204 201 238 226 223 204 175 228 150 88 70 79 17 328 314 320 340 348 349 340 337 331 335 333 320 321 305 281 273 251 255 273 283 301 312 295 289 291 270 248 238 238 240 244 242 230 214 204 210 222 224 219 230 220 214 99 61 289 17 103 202 195 202 171 191 214 168 158 171 172 163 164 173 175 182 187 199 210 223
64 77 131 176 222 205 192 203 218 222 220 213 224 250 20 68 67 47 27 351 317 340 354 358 357 356 350 351 351 1 4 347 324 302 284 262 272 282 284 291 292 308 290 281 261 254 241 238 234 227 228 224 202 192 201 212 207 205 230 198 177 111 83 73 92 158 169 160 175 155 164 164 160 155 163 161 162 167 172 176 181 183 191 198 228
42 69 106 126 176 208 213 208 218 226 236 236 245 292 348 27 27 14 18 21 333 348 359 2 357 356 1 10 16 13 24 34 355 334 323 329 337 293 258 285 278 260 276 268 252 248 239 235 228 222 210 201 197 182 184 200 191 186 212 116 116 105 100 94 104 146 148 150 137 151 158 150 152 156 160 160 165 167 166 166 171 173 170 181 201
87 98 109 140 162 217 222 221 215 217 243 257 282 332 359 21 16 18 12 8 345 356 0 357 345 351 20 36 36 9 7 55 23 13 350 339 329 288 345 18 116 275 258 237 237 233 232 223 213 208 197 187 184 178 170 168 176 111 106 117 115 118 117 104 114 140 144 141 141 149 154 145 149 155 153 157 159 156 152 154 154 156 142 145 131
104 123 143 152 139 168 234 227 232 248 270 267 272 21 26 17 332 358 9 5 6 355 354 350 347 360 33 40 45 35 21 37 22 2 336 304 331 345 338 27 7 355 222 207 195 198 201 197 191 197 178 176 183 178 165 149 106 106 120 119 120 114 114 111 128 134 136 133 132 143 149 143 156 156 153 147 147 153 156 153 147 144 138 130 133
103 117 152 138 141 116 148 225 264 282 274 258 228 82 65 201 108 29 6 10 6 0 353 342 342 2 22 48 48 37 37 30 0 8 1 18 329 328 334 343 343 325 218 159 159 171 176 165 173 172 166 170 175 163 158 119 113 111 117 121 119 123 123 123 123 129 127 127 130 138 142 143 152 146 136 127 127 126 139 125 120 123 122 113 112
133 163 136 129 127 136 137 124 281 288 249 237 45 60 87 319 39 19 13 12 8 357 336 314 313 340 10 36 49 73 58 28 10 0 28 305 289 297 308 320 297 224 120 122 129 144 151 153 151 148 151 156 158 144 125 123 117 117 117 118 124 116 115 119 124 130 125 129 129 123 122 116 129 113 109 108 106 122 123 126 125 123 122 122 118
118 92 118 98 98 128 140 284 292 263 275 8 50 70 48 11 18 33 9 354 5 351 327 313 310 314 360 9 3 79 85 90 75 140 342 311 290 290 306 297 257 129 126 131 132 130 135 135 135 137 141 140 139 139 106 116 115 121 118 118 115 112 110 108 133 126 125 122 127 121 124 122 102 110 109 107 115 119 120 120 119 117 114 114 112
145 133 123 129 144 127 210 180 200 218 339 68 76 70 75 355 16 352 5 7 346 341 328 313 314 331 347 339 349 348 359 327 341 359 349 336 311 307 301 166 126 106 126 130 123 125 128 130 128 128 125 125 132 124 111 106 120 115 115 109 108 109 113 112 126 119 124 120 119 120 112 99 97 103 106 110 114 116 118 117 119 117 117 112 111
37 132 134 131 127 118 166 154 126 20 76 83 72 81 68 18 25 325 333 346 344 357 343 309 315 337 342 346 339 27 20 50 327 37 15 360 28 67 3 10 86 104 116 116 118 121 118 119 120 114 112 113 112 118 117 115 113 110 106 105 103 106 106 121 134 145 127 125 120 111 99 99 103 100 104 106 110 113 112 110 107 110 106 106 104
128 47 105 124 104 106 138 97 115 45 54 44 76 63 38 6 29 350 349 353 5 13 331 325 328 333 5 8 21 125 94 65 50 56 40 65 40 40 53 48 77 106 107 105 106 106 110 109 112 109 108 107 109 110 117 119 110 108 100 98 98 103 126 127 120 108 104 100 106 105 97 96 104 103 106 108 109 106 106 105 110 105 103 97 95
124 125 63 67 89 132 107 120 348 56 74 77 88 77 34 32 34 37 31 21 22 41 69 74 65 66 26 63 63 45 65 66 51 48 63 52 63 61 72 83 99 106 107 103 103 103 105 105 105 109 106 104 92 103 109 111 105 96 97 92 100 115 117 123 117 108 100 110 107 93 91 97 102 106 103 106 108 110 104 102 99 96 89 88 88
127 129 134 138 135 125 117 103 105 348 29 65 86 67 46 41 48 57 57 31 47 65 89 83 71 68 65 60 57 49 52 64 73 71 75 74 85 72 72 85 94 101 102 100 99 101 101 105 103 105 106 99 102 115 111 107 100 86 88 96 103 127 115 109 108 101 112 108 104 84 90 96 97 100 105 102 104 102 98 94 93 90 86 88 87
125 130 133 132 130 127 129 140 109 2 45 69 59 72 80 59 35 30 36 54 66 68 85 83 72 60 57 55 50 55 66 84 72 53 70 88 97 95 96 97 99 101 98 98 98 100 102 99 102 102 102 101 108 115 106 100 105 98 91 102 124 102 107 101 99 110 106 110 102 74 89 94 98 101 104 102 97 97 93 92 90 88 87 86 87
133 135 135 131 129 122 119 125 108 107 56 49 33 52 55 63 54 44 61 60 43 50 56 73 73 63 57 53 31 44 54 66 72 80 92 94 94 100 100 107 111 108 103 110 104 107 101 107 107 105 111 110 97 97 104 109 107 109 123 124 108 101 92 104 113 106 101 96 94 75 86 94 98 101 100 98 96 96 92 87 88 87 88 89 89
131 131 139 132 130 134 133 119 116 109 108 148 138 70 24 33 43 20 10 53 39 22 32 47 77 80 66 66 60 61 70 76 81 83 87 89 94 100 104 105 104 103 100 103 104 108 110 116 117 120 109 113 136 133 124 118 118 124 118 109 103 104 109 108 100 103 101 98 89 77 90 96 98 100 100 99 98 92 90 91 91 88 87 87 89
130 139 133 139 137 144 143 138 148 123 161 73 88 94 96 68 62 78 13 29 38 42 40 42 50 65 70 89 88 83 81 82 88 89 90 96 101 100 101 101 100 104 101 101 104 110 106 106 109 109 127 128 126 119 120 127 118 110 112 109 110 111 104 98 98 97 105 105 96 81 92 97 99 98 101 99 96 96 92 91 88 88 88 86 87
135 137 138 135 135 162 162 165 147 138 135 125 126 111 115 123 76 51 50 36 43 44 50 54 60 66 48 65 72 78 76 75 77 83 87 95 95 96 96 96 96 96 111 119 119 121 130 134 134 136 130 130 123 117 117 101 113 112 100 109 109 111 113 107 104 101 97 104 102 92 92 95 98 100 99 99 97 95 94 89 90 90 86 83 81
135 134 143 153 160 172 161 178 170 156 139 115 115 122 109 99 110 110 50 47 54 68 73 69 76 78 75 52 57 66 81 78 79 91 96 101 105 105 107 117 122 118 113 121 124 124 127 126 125 127 128 125 119 114 113 112 103 105 99 95 106 105 111 115 108 109 114 110 111 104 94 95 99 98 97 96 97 95 92 90 89 87 85 84 84
135 143 153 155 155 152 176 192 188 155 132 141 132 139 128 130 131 140 134 58 45 40 46 76 82 84 92 93 87 84 80 85 92 98 100 102 107 117 113 117 121 118 117 122 122 119 127 127 126 126 125 124 127 120 115 111 118 124 122 108 105 112 103 104 106 107 114 122 123 115 96 96 96 97 96 95 93 92 91 91 88 86 84 83 83
132 145 161 157 161 163 182 191 185 162 155 175 153 156 144 141 145 148 146 146 66 54 76 82 93 106 116 118 112 89 78 79 82 91 97 100 103 99 109 115 116 119 119 116 131 136 135 135 134 130 132 131 123 124 117 116 110 103 105 111 112 118 109 103 100 103 120 123 124 121 106 91 94 93 93 91 91 88 89 88 86 85 83 83 82
136 162 163 146 159 183 189 187 183 169 172 201 173 172 162 152 149 158 154 143 123 118 112 104 101 104 105 115 118 115 116 102 89 86 94 99 102 106 112 113 118 120 124 137 135 135 137 135 138 136 132 128 121 114 114 113 112 111 119 129 118 101 106 105 123 141 140 136 127 126 116 104 90 90 89 89 86 86 86 84 84 83 83 83 83
156 173 156 159 194 196 197 194 192 168 170 201 191 178 158 148 156 156 143 123 120 115 115 121 108 100 107 115 121 119 109 101 100 101 102 110 116 114 115 117 120 125 131 140 142 139 142 139 147 141 133 132 127 119 108 123 128 126 115 119 124 120 115 124 118 118 133 125 123 123 130 115 106 88 85 84 83 83 81 81 81 81 81 82 82
164 163 135 191 182 187 170 191 192 181 177 193 179 181 163 166 156 145 122 116 128 131 124 107 101 93 95 96 104 109 110 108 105 108 104 112 115 116 121 126 130 130 133 139 142 153 150 154 133 139 132 128 127 128 134 125 113 122 132 117 128 129 109 123 133 128 123 143 131 117 115 122 120 104 96 82 83 80 79 79 79 79 81 82 82
157 154 168 199 185 174 179 189 190 193 180 191 178 179 170 168 160 122 119 115 102 100 97 89 83 86 84 93 94 103 108 109 114 115 117 113 112 119 123 130 135 128 139 143 131 152 148 124 135 145 136 143 144 139 135 135 125 137 142 134 128 121 126 139 135 138 145 134 130 141 131 138 136 125 113 101 88 82 81 79 80 81 82 81 82
151 183 181 165 191 187 177 203 199 188 192 178 182 175 173 173 170 151 119 101 97 96 96 92 86 84 90 97 101 104 110 108 107 115 115 111 120 118 132 134 129 136 139 149 134 147 146 141 136 132 153 141 137 131 133 127 139 140 121 113 116 104 123 127 116 135 150 134 135 138 142 136 137 129 125 130 107 93 78 81 82 83 82 82 83
164 192 168 177 183 190 163 203 192 200 188 197 186 175 170 168 124 96 106 93 94 91 87 95 84 79 91 98 97 102 105 106 103 107 110 111 119 126 121 121 129 148 128 127 117 122 135 142 152 165 152 129 125 144 130 132 124 116 104 135 145 122 127 119 142 163 145 130 128 132 123 129 127 123 113 111 131 115 85 81 79 83 81 84 83
184 180 173 166 178 178 153 180 197 174 182 173 169 148 158 141 127 146 90 90 74 83 97 89 116 108 98 98 99 103 101 102 103 111 110 113 118 123 138 134 130 132 131 140 146 135 118 151 161 162 152 148 158 155 146 137 129 136 138 143 123 124 117 132 143 139 137 148 148 153 150 161 153 153 150 144 138 136 121 89 83 82 89 85 83
164 206 187 161 179 160 166 191 147 166 160 162 139 160 157 115 156 127 131 120 104 114 88 81 75 129 87 81 89 99 106 105 109 114 120 119 116 124 119 122 126 126 138 131 146 144 155 174 151 160 150 160 159 166 159 141 142 143 140 152 128 133 141 143 121 142 151 147 156 159 148 152 117 122 141 114 129 135 139 153 119 105 95 73 81
201 207 206 177 159 164 161 151 136 158 149 142 127 131 131 122 118 144 120 111 121 110 91 90 210 90 81 76 93 110 110 107 109 118 121 125 115 114 122 109 120 124 130 109 149 149 151 159 157 165 154 147 158 164 151 141 157 150 150 147 136 140 143 141 126 108 140 137 158 134 119 120 148 125 132 170 150 162 157 154 150 147 131 80 72
239 248 225 189 126 134 161 131 143 161 139 136 129 121 128 119 127 101 104 108 99 95 84 106 25 62 67 88 93 103 105 108 111 113 120 121 122 120 109 109 107 122 123 136 143 158 159 149 168 154 148 157 171 157 170 161 160 152 132 157 138 124 121 101 107 141 102 92 120 122 144 154 138 131 172 159 159 155 195 146 186 154 156 137 105
255 291 301 289 116 156 183 169 154 155 143 144 132 138 123 134 114 111 94 93 111 85 100 75 119 137 110 84 87 101 102 108 109 115 114 110 111 106 107 109 116 120 122 131 143 139 147 148 174 164 142 163 170 168 179 164 130 151 133 131 141 133 128 150 121 133 152 133 166 148 129 120 119 180 185 174 184 192 196 206 219 186 154 164 137
279 307 300 304 195 203 197 188 184 168 168 190 130 163 146 137 134 119 113 103 120 91 80 150 165 74 59 69 100 95 94 100 102 105 106 105 109 114 99 99 105 106 109 110 121 138 134 152 144 140 145 144 170 181 177 178 158 160 155 138 136 127 142 138 133 162 159 189 180 171 223 176 194 192 182 199 225 192 228 208 237 268 249 80 96
237 252 288 304 236 221 225 205 220 191 213 230 146 150 171 175 151 158 156 199 94 145 171 249 75 67 21 50 63 75 80 84 85 88 101 116 111 104 105 105 97 107 109 122 117 127 150 125 154 182 150 149 144 192 193 169 170 168 138 143 160 164 155 136 144 174 179 211 196 172 214 248 201 182 220 212 244 264 255 250 159 313 346 47 55
237 253 250 257 228 274 264 254 228 245 238 264 217 220 196 170 164 164 165 171 179 140 106 108 56 40 25 24 27 44 65 72 84 104 106 112 115 112 114 104 100 91 93 99 109 95 90 94 183 142 138 168 157 195 181 183 180 166 163 165 188 180 145 147 169 174 180 162 230 188 240 234 213 202 220 218 221 256 291 308 27 311 325 320 72
239 251 239 261 259 270 277 270 250 254 299 305 267 206 195 195 164 168 161 152 151 122 105 97 58 39 25 13 349 26 31 40 61 73 101 93 99 107 101 100 82 86 82 86 93 102 107 101 140 152 150 172 163 156 198 178 187 184 175 183 169 161 159 166 175 173 165 172 201 202 189 261 247 262 253 232 251 235 250 301 309 279 275 297 0
246 246 239 251 260 270 277 280 272 264 293 302 297 214 217 191 174 167 218 155 221 148 127 132 306 88 303 350 348 4 16 21 28 51 61 96 95 103 107 98 101 81 87 91 84 89 93 145 179 181 141 180 173 162 171 169 170 168 165 183 151 156 172 179 161 181 191 188 198 166 206 238 246 249 261 276 255 261 252 248 258 275 279 277 241
251 250 240 250 254 262 272 275 264 263 283 294 301 248 234 204 180 179 211 135 306 251 191 227 217 193 255 340 346 343 10 37 358 5 36 46 80 86 108 113 108 119 102 92 102 127 171 179 170 182 168 166 176 170 175 171 151 190 191 167 190 218 155 172 212 271 252 194 193 196 229 222 221 208 219 241 298 285 259 282 280 296 284 271 283
248 251 247 250 253 254 261 262 262 259 263 300 292 291 232 231 205 188 228 159 218 226 244 249 242 226 274 256 328 311 345 343 4 356 22 30 55 79 93 108 112 113 98 93 104 133 136 174 170 171 173 167 175 197 168 179 162 215 198 187 185 166 178 204 212 153 198 252 185 198 252 236 220 217 229 204 230 264 268 258 288 287 294 293 263
236 245 251 251 255 255 256 260 256 241 249 279 284 285 276 246 222 207 234 197 235 266 163 257 250 245 253 259 238 263 327 335 327 9 341 24 37 35 62 87 95 113 132 175 168 179 143 142 136 161 194 186 184 177 181 192 192 194 208 216 200 206 185 174 176 184 243 253 266 310 235 277 271 274 263 227 243 249 216 226 295 330 282 269 300
235 240 246 252 254 257 261 257 253 233 247 262 272 286 276 262 261 226 234 227 229 223 241 263 259 263 270 274 266 274 74 293 329 317 339 14 346 56 170 79 114 192 141 151 143 134 123 131 174 209 174 183 185 191 183 193 204 215 184 228 202 250 267 241 246 207 199 213 224 267 278 195 285 304 313 280 278 282 291 289 254 265 238 254 229